[[{"header":{"parameterUnit":"m.s-1","parameterCategory":1,"la1":30.2992,"la2":30.254,"lo1":-89.0895,"lo2":-89.0443,"dy":0.0025,"dx":0.0025,"nx":19,"ny":19,"refTime":"2026-04-07T03:00:00:Z","depth":0,"parameterNumber":2,"parameterNumberName":"U-component_of_WINDS"},"data":[0,0,0,-8.8092,-8.8098,-8.8386,-8.8387,-8.8791,-8.8795,0,0,0,0,0,0,0,0,0,0,0,-8.8028,-8.8031,-8.8091,-8.8099,-8.8386,-8.8387,-8.8791,-8.8795,0,0,0,0,0,0,0,0,0,0,0,-8.8026,-8.803,-8.8035,-8.81,-8.8386,-8.8387,-8.879,-8.856,0,0,0,0,0,0,0,0,0,0,-8.8275,-8.8236,-8.8029,-8.8035,-8.8102,-8.8385,-8.8387,-8.8548,-8.8574,-8.8677,0,-8.8772,0,-8.8791,-8.8825,-8.8826,0,0,0,-8.8083,-8.8215,-8.8273,-8.8035,-8.8105,-8.8385,-8.8252,-8.8562,-8.8592,-8.8711,-8.8778,-8.8792,-8.8797,-8.8827,-8.883,-8.947,-8.9474,0,0,-8.8067,-8.8091,-8.8253,-8.8293,-8.825,-8.8243,-8.8261,-8.858,-8.8654,-8.8779,-8.8801,-8.8804,-8.883,-8.8834,-8.9467,-8.9471,0,0,0,-8.8032,-8.8081,-8.813,-8.8277,-8.8326,-8.8252,-8.8273,-8.8639,-8.8654,-8.8805,-8.8809,-8.8833,-8.8838,-8.9463,-8.9468,-8.9674,0,0,0,-8.8022,-8.806,-8.8124,-8.8141,-8.8321,-8.8486,-8.8326,-8.8632,-8.8667,-8.8807,-8.8833,-8.8842,-8.9458,-8.9466,-8.9659,-8.9766,0,0,0,-8.8002,-8.8057,-8.8106,-8.8142,-8.8266,-8.848,-8.8513,-8.8639,-8.8671,-8.8826,-8.8844,-8.9456,-8.9464,-8.9646,-8.9745,-8.9941,0,0,0,-8.7987,-8.8285,-8.811,-8.8445,-8.8264,-8.8606,-8.851,-8.8764,-8.8922,-8.8835,-8.9459,-8.9468,-8.9642,-8.9731,-8.9927,-9.0108,-9.0186,0,0,-8.8376,-8.8333,-8.8528,-8.838,-8.8758,-8.856,-8.897,-8.9093,-8.9087,-8.9343,-8.9359,-8.9664,-8.9743,-8.9938,-9.062,-9.0682,0,0,0,-8.8659,-8.8799,-8.8895,-8.9046,-8.9148,-8.9244,-8.9302,-8.9349,-8.9565,-8.9223,-8.9788,-8.9835,-8.9948,-9.0033,-9.0086,-9.0181,-8.9509,-8.9508,-8.9507,-8.924,-8.9217,-8.9539,-8.9551,-8.9701,-8.9759,-8.9878,-8.995,-8.9883,-9.0018,-9.0092,-9.0509,-9.061,-9.065,-9.075,-9.0188,-9.0189,-9.019,-9.019,-8.9806,-9.0001,-8.9907,-9.0184,-9.0159,-9.0393,-9.0463,-9.0408,-9.0622,-9.045,-9.0549,-9.036,-9.0719,-9.0805,-9.0206,-9.0203,-9.0201,-9.0199,-9.0198,-9.0182,-9.0271,-9.0323,-9.0541,-9.0714,-9.0717,-9.0928,-9.0898,-9.0872,-9.097,-9.1045,-9.1042,-9.1033,-9.1008,-9.101,-9.1011,-9.1012,-9.1014,-9.1014,-9.055,-9.0602,-9.0783,-9.0918,-9.1013,-9.1134,-9.1199,-9.1292,-9.1387,-9.1349,-9.1349,-9.1269,-9.0759,-9.0629,-9.1037,-9.1033,-9.103,-9.1028,-9.1026,-9.1128,-9.0993,-9.1272,-9.1367,-9.1524,-9.1697,-9.1658,-9.1851,-9.1924,-9.2029,-9.193,-9.1558,-9.1511,-9.1469,-9.1362,-9.1934,-9.1934,-9.1934,-9.1934,-9.1443,-9.1418,-9.1696,-9.185,-9.1999,-9.1992,-9.231,-9.2366,-9.2401,-9.2446,-9.236,-9.2216,-9.2175,-9.2153,-9.2095,-9.1995,-9.2715,-9.2716,-9.2717,-9.1796,-9.1784,-9.2058,-9.2091,-9.2213,-9.2319,-9.2618,-9.28,-9.2813,-9.2748,-9.248,-9.2447,-9.2215,-9.2141,-9.2065,-9.1977,-9.1791,0,0]},{"header":{"parameterUnit":"m.s-1","parameterCategory":1,"la1":30.2992,"la2":30.254,"lo1":-89.0895,"lo2":-89.0443,"dy":0.0025,"dx":0.0025,"nx":19,"ny":19,"refTime":"2026-04-07T03:00:00:Z","depth":0,"parameterNumber":3,"parameterNumberName":"V-component_of_WINDS"},"data":[0,0,0,1.2854,1.2853,1.2823,1.2823,1.2786,1.2786,0,0,0,0,0,0,0,0,0,0,0,1.2865,1.2865,1.2854,1.2853,1.2823,1.2823,1.2786,1.2786,0,0,0,0,0,0,0,0,0,0,0,1.2865,1.2865,1.2865,1.2853,1.2823,1.2823,1.2786,1.2808,0,0,0,0,0,0,0,0,0,0,1.2836,1.285,1.2865,1.2865,1.2853,1.2823,1.2823,1.2809,1.2806,1.28,0,1.2798,0,1.2791,1.2783,1.2783,0,0,0,1.285,1.2852,1.2842,1.2865,1.2853,1.2824,1.2836,1.2807,1.2805,1.2797,1.2797,1.2796,1.2791,1.2783,1.2783,1.2763,1.2764,0,0,1.2852,1.286,1.2844,1.284,1.2847,1.2837,1.2835,1.2806,1.2805,1.2797,1.2795,1.279,1.2783,1.2783,1.2763,1.2764,0,0,0,1.2858,1.2862,1.2852,1.2842,1.2837,1.2836,1.2834,1.2807,1.2803,1.2794,1.279,1.2783,1.2782,1.2763,1.2763,1.2774,0,0,0,1.2859,1.2866,1.2853,1.2858,1.2837,1.2822,1.2836,1.2805,1.2801,1.279,1.2783,1.2782,1.2763,1.2763,1.2774,1.2778,0,0,0,1.2866,1.2866,1.2863,1.2859,1.2846,1.2822,1.2817,1.2804,1.2799,1.2783,1.2782,1.2763,1.2763,1.2774,1.2777,1.2775,0,0,0,1.2875,1.2872,1.2863,1.2858,1.2847,1.283,1.2817,1.2803,1.2791,1.2783,1.2763,1.2763,1.2774,1.2777,1.2775,1.2776,1.2777,0,0,1.2876,1.2872,1.2869,1.286,1.2847,1.2834,1.2821,1.2801,1.279,1.2772,1.2772,1.2774,1.2777,1.2775,1.278,1.2782,0,0,0,1.2872,1.2869,1.2864,1.2854,1.284,1.2828,1.281,1.2802,1.2787,1.2784,1.2773,1.2774,1.2773,1.2773,1.2773,1.2771,1.2764,1.2764,1.2764,1.2884,1.2873,1.2866,1.2851,1.2842,1.2824,1.2814,1.2801,1.279,1.2788,1.2782,1.2787,1.2787,1.2788,1.2786,1.2782,1.2782,1.2782,1.2782,1.2885,1.2879,1.2867,1.2857,1.2844,1.2833,1.2815,1.2808,1.2796,1.279,1.2788,1.2783,1.2789,1.2787,1.2783,1.2782,1.2782,1.2782,1.2782,1.2892,1.2887,1.288,1.2865,1.2855,1.2839,1.2828,1.2816,1.2805,1.2803,1.2796,1.2796,1.2794,1.2801,1.2801,1.2801,1.2801,1.2801,1.2801,1.2902,1.2893,1.2887,1.2873,1.2865,1.2854,1.2835,1.2827,1.2814,1.2806,1.2806,1.2796,1.2793,1.2792,1.2801,1.2801,1.2801,1.2801,1.2801,1.2906,1.2903,1.2893,1.2886,1.2869,1.2859,1.2845,1.2829,1.282,1.2815,1.2805,1.2805,1.28,1.2799,1.2798,1.2808,1.2808,1.2808,1.2808,1.2912,1.2909,1.2896,1.2885,1.2873,1.286,1.2847,1.2833,1.2816,1.281,1.2807,1.2805,1.2805,1.28,1.2799,1.2798,1.2807,1.2807,1.2807,1.2913,1.2909,1.2901,1.2888,1.2874,1.2861,1.2848,1.2835,1.2816,1.2807,1.2804,1.2804,1.2801,1.2801,1.2792,1.2791,1.279,0,0]}]]